This is the latest recevied weather packets stored in our database for station/object LRCT. If no packets are shown the sender has not sent any weather packets the latest 10 day(s).
| Time | Temp. | Humidity | Pressure | Rain* | Wind** | Luminosity | Snow |
|---|---|---|---|---|---|---|---|
| 1777790938 | 7.78° C | 66% | 1023 hPa | - | - | - | - |
| 1777790073 | 7.78° C | 66% | 1023 hPa | - | - | - | - |
| 1777789138 | 7.78° C | 66% | 1023 hPa | - | - | - | - |
| 1777788236 | 7.78° C | 66% | 1023 hPa | - | - | - | - |
| 1777787337 | 3.89° C | 75% | 1023 hPa | - | - | - | - |
| 1777786437 | 3.89° C | 75% | 1023 hPa | - | - | - | - |
| 1777785533 | 3.89° C | 75% | 1023 hPa | - | - | - | - |
| 1777783733 | 1.11° C | 87% | 1023 hPa | - | - | - | - |
| 1777782838 | 1.11° C | 87% | 1023 hPa | - | - | - | - |
| 1777781937 | 1.11° C | 87% | 1023 hPa | - | - | - | - |
| 1777781060 | 1.11° C | 87% | 1023 hPa | - | - | - | - |
| 1777780132 | 0° C | 93% | 1022 hPa | - | - | - | - |
| 1777779236 | 0° C | 93% | 1022 hPa | - | - | - | - |
| 1777778331 | 0° C | 93% | 1022 hPa | - | - | - | - |
| 1777777436 | 0° C | 93% | 1022 hPa | - | - | - | - |
| 1777776548 | 5° C | 81% | 1023 hPa | - | - | - | - |
| 1777754934 | 10° C | 58% | 1022 hPa | - | - | - | - |
| 1777751336 | 10° C | 58% | 1022 hPa | - | - | - | - |
| 1777750437 | 10° C | 58% | 1022 hPa | - | - | - | - |
| 1777749537 | 10° C | 58% | 1022 hPa | - | - | - | - |
| 1777748636 | 10° C | 58% | 1022 hPa | - | - | - | - |
| 1777747737 | 12.78° C | 38% | 1020 hPa | - | - | - | - |
| 1777746837 | 12.78° C | 38% | 1020 hPa | - | - | - | - |
| 1777745937 | 12.78° C | 38% | 1020 hPa | - | - | - | - |
| 1777745037 | 12.78° C | 38% | 1020 hPa | - | - | - | - |
* Rain since midnight (hover to see other rain measurements)
** Current wind speed in m/s (hover to see current wind gust speed)